Weather History for Presque Isle, ME

Change the Weather History Date:

Monday, November 11, 2013

  Actual Average Record
Temperature  
Mean Temperature 32 °F -  
Max Temperature 33 °F 41 °F 66 °F (2002)
Min Temperature 30 °F 28 °F 5 °F (1965)
Degree Days  
Heating Degree Days 34    
Moisture  
Dew Point 26 °F    
Average Humidity 79    
Maximum Humidity 87    
Minimum Humidity 70    
Precipitation  
Precipitation 0.01 in - - ()
Sea Level Pressure  
Sea Level Pressure 29.81 in    
Wind  
Wind Speed 7 mph (West)    
Max Wind Speed 15 mph    
Max Gust Speed 18 mph    
Visibility 10 miles    
Events      
Averages and records for this station are not official NWS values.
T = Trace of Precipitation, MM = Missing Value Source: NWS Daily Summary

Daily Weather History Graph

Daily Weather History Graph

Search for Another Location

Airport:

Trip Planner

Search our weather history database for the weather conditions in past years. The results will help you decide how hot, cold, wet, or windy it might be!

Date:

Astronomy

Nov. 11, 2013 Rise Set
Actual Time 6:29 AM EST 4:02 PM EST
Civil Twilight 5:56 AM EST 4:35 PM EST
Nautical Twilight 5:20 AM EST 5:11 PM EST
Astronomical Twilight 4:44 AM EST 5:47 PM EST
Moon 1:01 PM EST (11/11) No Moon Set
Length of Visible Light 10h 38m
Length of Day
9h 33m
Waxing Gibbous, 66% of the Moon is Illuminated
Nov 11
Waxing Gibbous
Nov 17
Full
Nov 25
Last Quarter
Dec 2
New
Dec 9
First Quarter

Hourly Weather History & Observations

Time (EST) Temp. Windchill Dew Point Humidity Pressure Visibility Wind Dir Wind Speed Gust Speed Precip Events Conditions
12:15 AM 32.0 °F 26.4 °F 28.4 °F 87% 29.67 in 10.0 mi NNW 5.8 mph - N/A   Overcast
12:35 AM 32.0 °F 25.6 °F 28.4 °F 87% 29.67 in 10.0 mi NNW 6.9 mph - N/A   Overcast
12:55 AM 32.0 °F 25.6 °F 28.4 °F 87% 29.67 in 10.0 mi NNW 6.9 mph - N/A   Overcast
1:15 AM 32.0 °F 24.8 °F 28.4 °F 87% 29.67 in 10.0 mi NNW 8.1 mph - N/A   Overcast
1:35 AM 32.0 °F 26.4 °F 28.4 °F 87% 29.68 in 10.0 mi NW 5.8 mph - N/A   Overcast
1:55 AM 32.0 °F 25.6 °F 26.6 °F 80% 29.69 in 10.0 mi NW 6.9 mph - N/A   Overcast
2:15 AM 32.0 °F 26.4 °F 26.6 °F 80% 29.69 in 10.0 mi NW 5.8 mph - N/A   Overcast
2:35 AM 30.2 °F 23.4 °F 26.6 °F 86% 29.70 in 10.0 mi NW 6.9 mph - N/A   Overcast
2:55 AM 30.2 °F 24.3 °F 26.6 °F 86% 29.70 in 10.0 mi NW 5.8 mph - N/A   Overcast
3:15 AM 30.2 °F 22.6 °F 26.6 °F 86% 29.71 in 10.0 mi NW 8.1 mph - N/A   Overcast
3:35 AM 30.2 °F 25.4 °F 26.6 °F 86% 29.71 in 10.0 mi NW 4.6 mph - N/A   Overcast
3:55 AM 30.2 °F 24.3 °F 26.6 °F 86% 29.72 in 10.0 mi NW 5.8 mph - N/A   Overcast
4:15 AM 30.2 °F 23.4 °F 26.6 °F 86% 29.73 in 10.0 mi NW 6.9 mph - N/A   Overcast
4:35 AM 30.2 °F 23.4 °F 26.6 °F 86% 29.74 in 10.0 mi WNW 6.9 mph - N/A   Overcast
4:55 AM 30.2 °F 22.6 °F 26.6 °F 86% 29.75 in 10.0 mi WNW 8.1 mph - N/A   Overcast
5:15 AM 30.2 °F 23.4 °F 26.6 °F 86% 29.75 in 10.0 mi NW 6.9 mph - N/A   Overcast
5:35 AM 30.2 °F 23.4 °F 26.6 °F 86% 29.75 in 10.0 mi NW 6.9 mph - N/A   Overcast
5:55 AM 32.0 °F 24.8 °F 26.6 °F 80% 29.76 in 10.0 mi NW 8.1 mph - N/A   Overcast
6:15 AM 30.2 °F 21.9 °F 26.6 °F 86% 29.77 in 10.0 mi NW 9.2 mph - N/A   Overcast
6:35 AM 30.2 °F 20.8 °F 26.6 °F 86% 29.78 in 10.0 mi WNW 11.5 mph 16.1 mph N/A   Overcast
6:55 AM 30.2 °F 21.9 °F 26.6 °F 86% 29.79 in 10.0 mi WNW 9.2 mph - N/A   Overcast
7:15 AM 30.2 °F 21.9 °F 24.8 °F 80% 29.81 in 10.0 mi WNW 9.2 mph - N/A   Overcast
7:35 AM 30.2 °F 21.9 °F 24.8 °F 80% 29.82 in 10.0 mi WNW 9.2 mph 17.3 mph N/A   Mostly Cloudy
7:55 AM 30.2 °F 21.9 °F 26.6 °F 86% 29.83 in 10.0 mi WNW 9.2 mph - N/A   Overcast
8:15 AM 32.0 °F 24.2 °F 26.6 °F 80% 29.83 in 10.0 mi NW 9.2 mph - N/A   Overcast
8:35 AM 32.0 °F 23.0 °F 26.6 °F 80% 29.84 in 10.0 mi NW 11.5 mph - N/A   Overcast
8:55 AM 32.0 °F 23.0 °F 26.6 °F 80% 29.84 in 10.0 mi NW 11.5 mph - N/A   Overcast
9:15 AM 33.8 °F - 26.6 °F 75% 29.85 in 10.0 mi North - - N/A   Overcast
9:35 AM 33.8 °F 24.3 °F 26.6 °F 75% 29.86 in 10.0 mi WNW 13.8 mph 17.3 mph N/A   Overcast
9:55 AM 33.8 °F 25.3 °F 26.6 °F 75% 29.86 in 10.0 mi NW 11.5 mph - N/A   Overcast
10:15 AM 33.8 °F 26.4 °F 26.6 °F 75% 29.87 in 10.0 mi NW 9.2 mph - N/A   Overcast
10:35 AM 33.8 °F 27.0 °F 26.6 °F 75% 29.88 in 10.0 mi NW 8.1 mph - N/A   Overcast
10:55 AM 33.8 °F 26.4 °F 26.6 °F 75% 29.88 in 10.0 mi NW 9.2 mph - N/A   Overcast
11:15 AM 33.8 °F 27.0 °F 26.6 °F 75% 29.88 in 10.0 mi NW 8.1 mph - N/A   Overcast
11:35 AM 33.8 °F 26.4 °F 24.8 °F 70% 29.87 in 10.0 mi NW 9.2 mph - N/A   Overcast
11:55 AM 33.8 °F 23.9 °F 24.8 °F 70% 29.87 in 10.0 mi NNW 15.0 mph 18.4 mph N/A   Overcast
12:15 PM 33.8 °F 27.0 °F 24.8 °F 70% 29.87 in 10.0 mi NW 8.1 mph - N/A   Overcast
12:35 PM 33.8 °F 27.0 °F 24.8 °F 70% 29.86 in 10.0 mi NW 8.1 mph - N/A   Overcast
12:55 PM 33.8 °F 26.4 °F 24.8 °F 70% 29.86 in 10.0 mi NW 9.2 mph - N/A   Overcast
1:15 PM 33.8 °F 25.8 °F 24.8 °F 70% 29.87 in 10.0 mi NW 10.4 mph - N/A   Overcast
1:35 PM 33.8 °F 27.0 °F 24.8 °F 70% 29.87 in 10.0 mi WNW 8.1 mph - N/A   Overcast
1:55 PM 33.8 °F 28.6 °F 24.8 °F 70% 29.87 in 10.0 mi NW 5.8 mph - N/A   Overcast
2:15 PM 33.8 °F 28.6 °F 24.8 °F 70% 29.87 in 10.0 mi WNW 5.8 mph - N/A   Overcast
2:35 PM 33.8 °F - 24.8 °F 70% 29.87 in 10.0 mi Calm Calm - N/A   Overcast
2:55 PM 33.8 °F 30.8 °F 24.8 °F 70% 29.87 in 10.0 mi West 3.5 mph - N/A   Overcast
3:15 PM 33.8 °F 30.8 °F 26.6 °F 75% 29.88 in 10.0 mi West 3.5 mph - N/A   Overcast
3:35 PM 33.8 °F - 26.6 °F 75% 29.88 in 10.0 mi Calm Calm - N/A   Overcast
3:55 PM 33.8 °F - 26.6 °F 75% 29.87 in 10.0 mi Calm Calm - N/A   Overcast
4:15 PM 33.8 °F 30.8 °F 26.6 °F 75% 29.88 in 10.0 mi South 3.5 mph - N/A   Overcast
4:35 PM 33.8 °F 30.8 °F 26.6 °F 75% 29.88 in 10.0 mi WSW 3.5 mph - N/A   Overcast
4:55 PM 33.8 °F 30.8 °F 26.6 °F 75% 29.88 in 10.0 mi SSW 3.5 mph - N/A   Overcast
5:15 PM 33.8 °F 27.7 °F 26.6 °F 75% 29.88 in 10.0 mi SW 6.9 mph - N/A   Overcast
5:35 PM 33.8 °F 27.7 °F 26.6 °F 75% 29.88 in 10.0 mi SW 6.9 mph - N/A   Overcast
5:55 PM 33.8 °F 28.6 °F 24.8 °F 70% 29.88 in 10.0 mi SW 5.8 mph - N/A   Overcast
6:15 PM 33.8 °F 29.6 °F 24.8 °F 70% 29.87 in 10.0 mi SSW 4.6 mph - N/A   Overcast
6:35 PM 32.0 °F 27.5 °F 24.8 °F 75% 29.86 in 10.0 mi South 4.6 mph - N/A   Overcast
6:55 PM 32.0 °F 26.4 °F 26.6 °F 80% 29.86 in 10.0 mi South 5.8 mph - N/A   Overcast
7:15 PM 32.0 °F 26.4 °F 26.6 °F 80% 29.85 in 10.0 mi South 5.8 mph - N/A   Overcast
7:35 PM 32.0 °F 27.5 °F 24.8 °F 75% 29.85 in 10.0 mi South 4.6 mph - N/A   Overcast
7:55 PM 32.0 °F 27.5 °F 26.6 °F 80% 29.85 in 10.0 mi South 4.6 mph - N/A   Overcast
8:15 PM 32.0 °F 27.5 °F 26.6 °F 80% 29.85 in 10.0 mi South 4.6 mph - N/A   Overcast
8:35 PM 32.0 °F 26.4 °F 24.8 °F 75% 29.83 in 10.0 mi South 5.8 mph - N/A   Overcast
8:55 PM 30.2 °F 24.3 °F 24.8 °F 80% 29.83 in 10.0 mi South 5.8 mph - N/A   Mostly Cloudy
9:15 PM 30.2 °F 25.4 °F 26.6 °F 86% 29.82 in 10.0 mi SSE 4.6 mph - N/A   Mostly Cloudy
9:35 PM 30.2 °F 25.4 °F 24.8 °F 80% 29.81 in 10.0 mi South 4.6 mph - N/A   Overcast
9:55 PM 30.2 °F 23.4 °F 24.8 °F 80% 29.80 in 10.0 mi SSE 6.9 mph - N/A   Overcast
10:15 PM 30.2 °F 23.4 °F 26.6 °F 86% 29.80 in 10.0 mi SSE 6.9 mph - N/A   Overcast
10:35 PM 30.2 °F 22.6 °F 26.6 °F 86% 29.79 in 10.0 mi SSE 8.1 mph - N/A   Overcast
10:55 PM 30.2 °F 22.6 °F 26.6 °F 86% 29.78 in 5.0 mi SSE 8.1 mph - N/A   Overcast
11:15 PM 30.2 °F 22.6 °F 26.6 °F 86% 29.77 in 5.0 mi South 8.1 mph - N/A   Overcast
11:35 PM 32.0 °F 24.2 °F 28.4 °F 87% 29.76 in 4.0 mi South 9.2 mph - N/A   Overcast
11:55 PM 32.0 °F 25.6 °F 28.4 °F 87% 29.75 in 5.0 mi SSE 6.9 mph - N/A   Overcast